Theta_e
353 352 350 348 348 346 352 343 318 326 324 315 317 321 319 333 333 328 329 332 328 335 339 338 339 335 333 331 331 336 336 328 334 315 313 335 349 352 354 356 357 357 356 358 359 360 362 363 364 364 366 366 366 365 366 366 367 367 366 365 364 365 364 363 364 364 364 364 364 363 362 363 363 363 363 362 362 362 362 362 362 362 363 364 363 363 363 363 364 364 365 364 362 362 361 362 362
351 350 350 348 345 344 333 343 321 319 319 316 318 324 324 332 333 327 327 330 333 337 338 341 339 341 340 338 337 336 334 338 339 336 341 348 352 352 356 357 357 355 357 359 360 360 362 363 365 365 366 366 366 366 367 367 367 366 366 365 365 364 363 363 363 364 364 363 363 363 363 364 364 363 363 362 362 362 362 361 362 363 363 363 363 363 363 362 363 362 364 363 362 362 362 362 362
350 349 348 348 346 345 339 336 315 316 313 310 318 323 331 328 327 328 332 333 336 338 341 340 341 338 338 337 331 331 326 341 339 341 341 350 345 348 355 357 357 357 358 359 360 361 362 363 364 366 366 366 366 366 367 367 366 365 364 365 365 365 364 364 363 363 363 363 363 363 363 363 364 363 363 362 362 362 362 361 361 363 362 362 362 363 363 362 362 362 364 363 362 363 363 362 361
349 349 344 345 338 344 328 325 320 317 313 313 315 327 328 327 328 331 336 339 336 338 338 335 335 339 334 328 331 336 333 335 341 341 341 345 346 352 355 356 358 358 358 359 360 361 362 364 365 366 365 365 366 366 366 365 366 365 365 365 365 365 365 364 364 365 363 363 364 363 363 363 363 364 363 363 363 363 363 363 363 362 362 361 362 362 362 362 362 361 362 362 363 363 362 361 361
354 355 354 346 340 327 327 323 321 321 312 317 316 328 327 330 332 332 337 338 339 337 334 333 333 341 338 333 336 329 331 341 342 346 344 348 353 355 355 356 355 355 355 357 360 361 362 365 365 365 365 366 366 365 365 365 364 364 364 364 365 364 363 364 364 364 364 364 364 363 363 364 363 363 363 363 363 363 363 363 363 361 361 361 362 362 362 362 362 362 362 363 364 363 363 361 360
354 351 356 348 332 345 331 320 318 318 323 328 321 325 331 332 333 334 335 337 338 338 338 335 332 332 332 335 338 333 340 332 342 345 346 347 353 355 355 355 353 352 353 356 358 360 363 366 365 365 366 365 365 365 365 365 364 364 364 364 364 364 364 364 364 365 365 365 364 364 363 363 364 363 363 363 364 364 363 362 362 362 362 361 360 361 361 361 363 362 363 364 363 364 362 361 361
347 347 344 345 343 338 320 318 318 320 324 328 326 331 332 333 334 333 333 335 338 339 338 333 334 333 329 335 338 342 345 346 343 345 349 351 353 353 353 353 352 351 354 355 357 360 363 365 365 366 366 366 365 365 365 365 365 365 365 364 364 363 363 364 364 364 364 364 365 364 364 363 363 363 364 364 363 363 363 362 363 361 361 361 362 362 361 362 362 363 363 364 364 363 363 362 360
354 344 339 329 325 328 319 321 320 325 326 333 335 332 332 334 336 335 332 332 329 336 334 336 336 331 329 340 329 341 345 348 348 350 351 351 350 351 352 351 350 353 355 357 358 360 366 365 365 366 365 365 365 365 365 364 365 364 365 364 364 364 365 364 364 364 364 364 364 364 363 363 363 363 363 364 363 363 362 362 363 363 362 362 361 361 362 362 362 362 363 363 364 363 363 362 361
346 345 346 330 321 326 321 319 322 334 329 334 336 337 337 337 335 335 332 335 333 335 332 333 335 327 329 333 333 340 343 348 350 352 351 350 349 351 351 351 352 354 356 358 360 362 362 365 365 365 365 365 365 364 365 365 365 365 364 365 365 364 364 364 364 364 364 364 364 364 364 363 363 363 363 363 362 363 362 362 362 362 362 362 361 361 362 362 361 363 363 363 363 363 363 362 363
339 344 329 327 325 317 321 321 319 326 329 336 336 334 336 338 336 338 334 332 334 332 333 336 335 329 333 329 332 338 341 349 350 349 350 350 350 351 351 352 355 355 357 360 361 361 362 367 365 365 365 365 364 364 364 365 365 366 365 365 365 365 365 365 364 365 364 364 364 364 364 364 363 363 363 363 363 362 362 362 363 362 362 363 362 361 361 362 362 361 362 363 363 363 363 362 362
334 342 340 324 319 316 316 319 323 330 332 336 335 340 340 342 337 334 335 335 335 331 335 337 332 332 333 333 333 344 347 349 347 345 349 349 351 350 350 353 356 358 358 359 360 361 362 362 367 365 365 365 364 364 365 364 365 366 365 365 365 365 365 364 364 365 364 365 365 364 363 364 364 364 364 364 363 363 363 362 363 362 362 361 361 361 361 363 363 364 363 363 362 363 363 363 361
331 331 333 319 318 317 320 321 323 329 334 334 332 339 340 338 339 334 333 331 334 331 332 336 331 337 331 331 332 342 346 346 347 348 349 350 350 350 352 356 357 358 358 359 361 360 361 362 363 366 366 365 365 365 365 365 366 365 364 365 365 365 364 364 365 365 365 365 364 363 364 364 364 363 363 364 364 363 363 362 362 362 362 362 361 362 362 362 361 363 363 363 363 362 363 363 360
332 334 327 321 321 322 324 323 325 327 326 329 332 338 342 337 337 335 335 334 333 331 331 337 338 337 328 330 337 341 342 345 347 349 349 349 350 351 354 355 356 357 359 360 359 360 361 361 362 362 364 366 366 366 366 366 366 365 365 365 365 365 365 365 365 365 365 365 364 365 365 364 364 364 364 363 363 363 362 363 362 362 362 362 362 362 362 363 363 363 363 364 364 363 363 362 360
333 335 329 318 331 325 323 325 328 322 326 330 341 341 340 339 338 337 337 332 334 333 335 339 339 337 331 333 333 335 340 346 347 348 348 350 350 351 351 353 356 357 359 359 358 359 360 361 361 362 362 362 362 365 366 366 366 366 365 365 365 366 366 366 365 366 365 365 364 365 364 363 363 364 364 363 363 363 363 362 361 361 362 362 362 362 362 362 364 363 364 364 364 364 363 359 361
332 339 331 324 324 325 328 323 324 323 325 334 338 339 338 340 340 341 337 332 335 338 339 343 340 335 326 329 329 334 339 344 346 347 347 348 349 349 350 354 355 356 357 358 359 359 359 360 361 361 361 361 361 361 361 363 366 366 366 366 366 366 365 366 367 365 365 365 364 364 363 363 363 364 363 364 364 364 364 363 361 362 362 361 361 361 361 362 363 363 363 364 364 364 364 363 360
339 337 330 322 319 321 323 324 329 325 327 333 338 340 337 340 342 338 337 342 337 341 341 333 342 336 335 334 335 338 342 344 345 346 346 346 346 347 350 351 352 355 356 357 357 358 359 359 360 360 360 361 360 361 361 361 365 366 366 367 366 366 366 365 365 364 365 364 363 364 364 364 363 362 365 362 363 363 364 361 362 361 362 362 362 362 362 363 363 363 364 364 364 364 364 364 360
343 340 323 321 316 323 326 323 325 320 331 334 339 339 331 334 342 344 348 344 337 336 337 338 337 342 337 338 341 341 343 345 345 344 344 343 343 343 346 347 350 352 354 354 354 356 359 359 359 359 360 360 360 360 360 361 363 365 365 367 366 366 365 364 365 365 364 363 365 364 363 359 359 360 362 359 363 363 362 363 362 363 363 363 362 362 362 362 363 363 363 363 363 363 362 362 363
335 327 321 316 320 320 326 325 328 333 330 332 335 337 335 330 336 339 344 340 338 338 336 339 339 340 342 343 343 343 343 342 342 340 340 340 341 340 342 345 347 348 350 350 354 357 358 358 358 359 359 359 360 360 361 362 362 363 361 362 362 363 363 364 363 362 365 359 365 362 360 360 357 358 361 364 363 363 362 364 363 363 362 362 363 363 362 363 362 362 362 362 362 362 363 360 364
324 323 322 317 323 325 333 333 333 331 330 334 336 336 335 333 337 340 334 335 336 334 334 336 335 339 341 342 341 341 342 341 340 339 338 338 339 339 340 343 344 346 346 350 353 356 357 357 358 359 359 359 359 360 361 361 360 360 361 361 362 364 363 365 361 362 359 360 361 361 363 360 359 360 361 364 365 363 363 364 363 363 363 362 362 363 363 363 362 362 363 362 362 361 360 358 358
327 321 315 320 330 332 335 335 335 334 335 334 336 335 336 339 337 340 335 333 332 330 330 332 332 334 336 338 340 340 340 339 339 337 337 338 339 340 340 341 342 344 347 351 352 356 357 356 357 358 358 358 358 358 359 359 359 360 360 360 359 360 361 363 361 361 361 361 362 360 360 360 359 360 363 364 363 361 361 363 363 362 363 362 363 364 363 363 363 364 364 364 363 362 357 358 357
327 322 317 325 331 327 332 341 337 338 335 335 335 337 336 337 338 340 336 332 334 332 335 333 332 335 336 337 339 339 339 338 337 337 337 338 339 341 342 342 342 345 348 352 353 355 356 357 357 357 358 358 357 357 357 357 358 359 359 358 359 359 359 359 360 360 361 360 361 360 360 359 359 361 360 359 358 359 357 357 359 359 358 357 361 357 359 361 361 357 358 359 355 357 356 356 356
327 323 326 332 331 329 338 342 338 335 338 340 337 333 333 340 338 336 337 330 326 334 336 337 336 336 337 337 338 338 338 337 336 336 336 337 338 340 342 343 345 346 348 349 351 354 356 357 357 357 358 357 356 356 356 359 359 357 357 358 358 358 359 358 360 359 358 360 360 360 357 357 357 357 358 356 359 358 357 357 357 360 359 359 361 356 356 358 356 357 357 357 354 355 355 354 355
317 322 323 332 331 331 335 338 336 337 334 336 334 336 339 336 335 336 337 334 338 342 341 338 338 339 339 339 337 336 337 337 336 336 336 337 339 341 342 343 343 344 346 347 351 353 355 356 358 358 356 356 356 356 357 359 357 357 357 357 357 357 358 357 358 359 353 353 356 357 355 354 354 356 358 358 357 357 356 356 356 358 358 357 360 357 356 356 359 356 355 356 354 356 355 355 356
319 314 323 332 332 331 335 333 336 335 339 337 339 338 333 333 331 338 335 338 342 343 341 339 340 340 340 337 336 336 337 337 337 337 338 338 340 342 343 343 344 345 345 347 350 353 355 356 358 358 357 356 355 356 357 357 357 357 356 362 358 360 359 357 358 352 351 352 354 357 357 354 353 354 358 356 355 356 355 356 355 357 358 359 362 361 357 357 357 358 359 356 355 355 357 355 356
317 315 318 330 332 331 335 336 335 334 336 340 339 334 336 338 335 337 334 339 344 343 340 340 340 339 339 337 336 336 337 338 338 338 339 338 341 344 344 344 345 345 345 346 349 352 354 357 358 357 357 356 355 356 357 357 357 356 357 356 357 364 358 357 357 351 350 352 356 357 355 352 353 354 353 354 354 354 354 354 354 354 355 357 360 359 356 356 357 358 358 356 353 354 355 356 355
318 318 320 321 328 332 335 335 335 335 336 338 336 336 338 336 339 335 337 339 340 340 338 339 339 338 337 336 337 337 337 338 339 338 337 338 340 341 342 343 344 344 346 346 347 351 354 356 356 356 357 356 356 355 356 356 356 354 355 356 357 363 357 355 355 350 350 352 354 355 355 353 353 354 353 353 352 352 353 353 354 355 355 357 359 357 360 358 355 355 356 356 354 354 354 354 358
317 317 319 318 319 329 334 332 334 335 337 343 336 331 336 338 336 326 335 338 341 338 337 338 338 337 337 337 337 338 337 338 339 340 338 338 338 339 340 343 343 344 347 346 346 349 355 354 355 356 357 358 356 353 355 356 356 355 356 356 357 357 356 355 353 350 350 352 352 353 354 355 353 354 353 352 353 353 354 355 355 355 356 359 361 360 358 360 357 357 356 356 354 353 354 356 358
315 314 313 314 318 324 332 332 333 335 335 336 336 331 335 336 334 329 334 338 340 336 336 336 336 336 336 337 337 339 339 340 340 340 337 337 335 336 338 340 341 345 346 345 345 348 353 353 353 354 355 356 355 352 356 355 354 355 356 354 355 356 356 352 350 350 353 351 353 353 354 355 357 354 354 354 354 354 355 356 357 357 357 359 362 360 359 358 357 357 359 358 355 355 356 356 357
314 313 308 310 315 316 329 328 331 334 331 335 336 329 328 330 326 332 336 338 338 336 334 335 335 335 335 336 337 339 339 340 340 339 338 338 337 337 336 340 342 343 346 347 346 349 349 350 351 353 354 356 353 353 354 354 353 355 354 353 354 359 352 353 350 350 350 351 352 353 354 355 359 354 355 357 361 357 357 357 357 358 358 359 361 361 359 356 356 355 356 357 356 356 355 354 357
312 311 308 307 309 309 317 322 333 332 330 336 333 316 321 328 330 335 337 337 337 334 333 334 335 335 336 336 336 338 339 340 339 339 339 338 338 337 336 339 342 343 343 345 346 347 349 350 353 353 354 354 354 354 354 354 353 354 354 353 359 356 355 355 354 351 353 351 352 352 352 354 353 354 355 356 356 356 356 356 354 354 356 361 361 361 356 356 355 354 355 354 356 355 352 354 355
304 308 309 302 303 303 315 317 330 327 333 334 332 316 320 326 331 334 337 338 335 332 333 333 334 335 335 336 336 336 338 339 339 339 340 339 340 337 337 339 342 342 343 344 344 345 348 350 352 352 355 353 357 355 354 353 353 354 353 355 356 356 356 357 357 355 353 353 352 351 352 354 353 354 358 357 356 357 358 359 358 359 360 361 359 359 355 354 353 354 355 351 352 353 355 357 354
307 301 298 302 301 304 312 317 318 319 330 333 327 315 317 324 329 333 336 336 336 332 332 333 334 334 335 335 335 336 336 338 339 339 341 340 340 338 337 338 342 342 342 343 343 345 346 350 352 352 353 351 354 353 353 354 353 352 354 361 355 359 355 356 359 358 356 356 354 352 353 356 354 355 358 359 360 360 357 357 358 363 363 363 361 358 356 354 354 354 355 352 348 350 352 348 352
305 300 301 300 302 303 307 313 317 325 329 330 325 317 322 326 330 332 336 335 335 332 332 332 334 335 335 335 335 336 336 336 337 338 339 339 339 340 338 339 342 342 342 342 342 343 345 349 351 351 351 350 353 353 353 354 353 353 355 354 355 357 354 355 357 358 359 359 358 357 356 357 355 357 359 360 361 362 361 359 361 362 366 363 361 357 356 359 355 356 353 355 352 347 352 347 346
299 302 298 302 302 304 302 311 315 325 327 322 327 321 322 325 329 331 334 336 334 332 331 333 334 334 334 335 335 335 335 335 335 337 338 339 340 341 341 344 343 342 342 342 342 342 346 347 349 351 351 351 352 352 351 352 351 353 352 352 356 354 352 353 354 356 358 359 360 361 362 362 361 362 363 363 361 362 359 361 362 363 365 364 363 359 358 361 357 356 352 353 351 350 348 348 345
297 298 298 300 304 305 304 305 311 319 325 323 323 320 322 325 328 330 333 335 334 332 331 333 333 334 334 334 334 335 335 334 335 337 339 339 340 341 341 341 342 341 342 342 341 341 345 345 349 350 350 350 351 352 350 352 351 351 350 350 349 352 349 350 352 355 360 360 360 363 364 365 367 365 363 364 362 363 361 362 361 363 364 362 362 360 356 358 359 353 352 351 354 350 350 352 346
303 303 301 302 301 302 304 309 313 314 313 319 321 317 319 323 326 329 332 334 333 334 334 333 334 334 334 334 335 335 335 336 337 338 340 340 341 341 341 341 341 341 342 341 341 340 343 344 347 348 349 350 349 351 349 349 347 348 346 345 346 349 350 350 352 355 358 359 361 363 363 365 366 363 362 363 364 361 361 360 362 363 363 361 359 358 355 352 354 355 354 352 355 359 362 360 352
306 304 302 300 300 304 309 310 313 315 316 318 320 320 321 322 324 328 331 332 332 333 335 333 334 334 335 334 336 335 335 336 339 339 340 340 341 341 341 340 340 340 342 341 340 339 342 343 346 346 347 350 349 349 346 347 342 346 342 340 339 339 346 349 350 352 357 360 361 362 363 364 365 364 364 363 362 367 361 361 362 361 361 359 359 358 358 357 358 361 359 360 358 355 350 347 346
305 303 302 300 302 299 306 309 313 319 316 316 320 320 320 321 324 327 329 329 329 331 331 332 333 336 337 335 333 334 338 338 339 339 339 340 341 340 341 340 341 337 340 340 340 338 341 343 345 346 346 349 349 350 348 348 344 346 342 339 336 339 346 346 343 348 356 360 360 361 362 363 365 366 366 363 363 362 360 360 360 359 360 360 360 363 362 364 359 358 361 355 359 356 352 350 348
304 301 300 300 300 304 306 308 312 316 317 315 319 318 319 321 325 327 327 328 329 332 333 334 334 335 336 336 334 335 335 338 337 338 339 340 341 340 340 340 339 338 340 340 341 339 339 343 344 346 347 349 348 352 350 349 347 350 346 343 339 342 348 347 345 350 359 358 358 359 361 362 364 365 365 365 362 361 359 359 360 360 359 362 358 358 359 355 357 357 358 352 353 355 358 353 348
301 299 297 297 302 300 296 305 309 314 316 316 318 318 318 322 326 326 328 328 329 332 334 336 336 335 335 336 335 335 336 336 337 337 338 339 340 340 339 339 339 338 341 340 340 339 338 344 344 346 347 350 349 353 354 352 350 351 348 346 344 344 342 347 346 350 357 357 355 357 359 360 363 364 364 366 365 362 359 358 361 360 360 362 359 357 359 357 356 356 359 360 358 347 347 342 352
302 302 300 299 301 302 302 302 307 310 312 322 319 316 316 319 320 322 327 329 329 331 333 336 337 338 338 339 337 338 336 336 337 336 337 339 339 339 339 339 340 338 340 339 341 340 338 342 345 346 347 351 350 354 355 353 352 351 348 348 348 344 346 344 344 340 353 355 354 354 357 359 361 362 364 365 365 363 360 360 361 362 360 360 361 359 359 359 356 358 358 356 355 349 350 341 346
299 303 303 302 303 302 303 304 304 301 303 318 317 306 307 316 319 321 323 325 325 328 329 334 335 337 336 335 334 336 338 338 338 338 336 338 339 340 339 340 339 339 340 340 342 341 340 341 346 347 346 350 352 352 354 353 350 348 344 342 340 338 337 337 337 337 346 351 351 353 356 359 360 361 361 362 363 365 361 362 361 363 361 362 360 359 360 360 358 357 359 358 358 356 352 351 340
297 299 305 305 304 304 303 302 301 295 296 312 320 307 303 315 316 319 322 323 323 326 326 334 335 335 335 334 334 335 337 338 341 340 338 337 339 339 339 339 339 339 340 341 343 341 343 341 347 347 347 347 354 352 353 353 349 348 344 342 339 339 335 337 339 340 343 350 351 350 352 354 356 356 361 360 361 363 363 364 363 364 364 362 363 360 360 361 359 360 361 360 358 361 357 350 339
297 306 306 305 304 302 302 302 300 297 304 306 308 310 305 306 313 320 323 322 322 323 324 331 334 334 334 334 335 336 337 339 340 341 338 338 339 339 338 340 339 341 341 341 342 342 345 341 348 347 349 348 352 353 352 352 349 347 344 343 343 339 340 337 341 342 342 347 349 350 349 351 352 351 357 359 360 364 362 364 364 363 362 362 362 362 361 362 360 359 359 361 361 364 358 353 351
301 306 307 305 304 303 303 301 298 299 298 294 300 306 305 306 313 320 321 318 319 320 322 328 332 333 333 334 335 336 338 339 340 340 339 338 338 340 340 340 341 342 342 342 342 343 346 344 348 348 350 350 351 354 351 351 351 348 345 343 342 343 347 342 345 349 345 344 345 350 348 349 350 349 352 359 361 363 365 363 364 363 361 360 366 363 362 360 359 355 355 359 361 363 361 359 354
306 308 309 308 307 306 303 298 298 298 295 292 297 304 297 301 313 315 318 317 317 319 322 328 331 333 333 333 335 337 338 339 340 341 341 339 339 340 342 341 341 341 343 344 343 344 348 346 347 349 348 352 352 354 351 350 350 350 344 344 341 344 348 349 345 347 349 346 340 349 349 349 349 348 352 358 361 362 363 364 363 362 362 362 364 362 360 356 360 358 358 362 363 361 364 363 359
309 308 306 305 303 301 301 299 299 296 290 291 299 301 299 293 309 314 313 315 318 321 323 329 332 332 333 334 335 337 337 338 338 340 341 341 341 341 342 341 341 341 343 344 344 345 348 348 347 350 348 352 354 354 352 350 350 350 345 345 342 343 344 348 345 344 346 349 344 347 349 350 348 348 350 359 359 362 362 364 363 362 362 363 364 359 358 355 361 361 362 364 362 361 356 356 358
307 303 301 299 297 300 297 299 299 291 286 295 299 299 300 291 301 315 319 321 322 322 321 325 331 331 332 333 336 337 337 337 338 339 340 341 340 340 342 341 341 341 343 344 344 346 348 349 348 348 350 351 355 355 353 350 351 350 347 346 345 345 344 348 345 344 344 347 348 345 351 349 348 348 348 354 357 361 362 362 363 362 362 360 360 359 361 357 361 361 361 361 361 358 354 354 356
304 301 300 294 291 293 288 292 289 288 287 295 299 300 296 295 300 309 320 322 323 325 325 326 331 332 332 333 336 337 336 338 340 339 339 340 339 340 340 341 341 341 342 344 345 347 348 350 349 348 350 351 354 355 353 352 351 350 348 346 347 347 345 349 347 346 345 346 346 349 349 348 348 347 348 350 357 357 361 361 359 359 359 361 361 357 357 362 362 358 360 359 360 356 356 357 358
300 297 296 293 288 288 284 288 290 290 296 299 298 300 294 300 300 308 311 321 325 325 326 329 332 332 332 333 336 336 336 337 339 340 339 339 340 341 340 341 342 343 343 345 345 347 348 350 350 348 349 352 354 355 354 352 351 351 350 348 348 349 346 348 348 348 346 345 347 350 350 350 350 348 350 350 353 357 361 361 361 360 362 360 362 359 358 363 367 363 359 357 358 359 359 360 359
299 304 300 296 295 292 286 288 285 287 289 296 301 295 290 293 295 307 308 310 322 327 327 330 333 333 333 335 335 336 336 337 338 339 339 340 341 342 341 342 343 344 344 346 346 348 349 349 351 350 349 351 353 355 354 352 352 352 352 350 349 349 347 347 348 350 348 346 347 348 352 351 351 351 352 354 354 355 361 361 361 360 363 360 363 363 363 363 363 363 369 358 359 360 360 361 359
302 303 304 297 295 300 289 293 292 293 291 292 294 293 297 296 305 308 310 310 309 322 326 328 331 331 334 333 333 334 336 337 338 337 338 340 342 343 343 342 344 345 345 347 347 348 350 350 351 351 351 351 352 355 354 353 352 352 352 350 349 350 351 348 349 350 352 349 349 347 352 353 351 350 353 354 355 354 359 360 361 360 362 363 362 362 362 362 362 360 360 362 360 364 358 360 359
299 301 296 299 303 300 296 298 299 298 294 291 303 299 299 303 303 305 307 307 307 308 321 326 328 331 332 332 332 334 335 336 337 337 338 339 343 344 345 344 345 346 346 347 348 349 351 351 352 352 352 353 352 354 354 353 352 351 352 351 349 350 349 347 347 348 352 352 352 349 351 354 354 352 352 355 353 357 358 359 360 360 361 363 363 363 363 362 362 362 360 359 357 360 359 357 358
301 295 297 305 305 303 299 290 294 292 288 292 298 294 294 295 291 303 303 304 306 307 310 327 330 332 331 331 333 334 334 336 338 338 339 341 343 344 345 346 346 347 347 347 349 350 352 354 353 353 353 353 353 353 354 353 352 352 351 351 350 349 350 349 348 348 350 354 354 353 352 354 355 356 353 354 352 357 357 364 358 358 361 362 363 364 363 363 362 361 362 361 361 360 360 361 360
302 300 308 297 293 291 296 297 288 288 288 290 294 298 298 296 297 301 301 303 305 307 309 326 329 330 330 331 332 334 335 336 336 337 340 343 343 344 344 346 347 348 349 349 350 351 352 354 356 355 354 355 355 355 355 355 353 353 353 352 350 350 350 350 350 351 349 352 355 354 354 354 356 357 356 353 352 351 357 359 358 358 360 361 363 363 363 362 363 360 361 361 362 361 359 359 359
308 306 303 306 302 297 293 297 296 296 289 293 291 296 292 302 300 302 302 304 305 308 309 325 328 329 330 331 332 334 335 335 336 337 341 343 343 344 344 345 347 347 348 350 350 352 352 354 356 357 357 357 357 356 356 355 354 353 353 353 352 351 351 350 351 351 350 350 355 356 355 355 355 357 357 354 353 351 357 358 358 358 360 360 361 362 363 362 362 361 360 361 361 361 359 359 360
296 299 298 300 301 304 301 301 296 292 291 290 290 290 297 302 307 304 304 306 307 308 309 317 327 329 330 331 333 334 334 334 335 337 341 342 343 344 344 345 347 348 349 350 350 351 353 354 356 357 357 357 357 357 357 357 356 354 354 353 352 352 352 352 352 353 352 351 354 357 357 356 355 354 357 355 354 352 354 357 358 359 359 359 360 361 362 362 361 360 360 359 358 360 358 358 359
297 296 295 296 295 294 292 291 302 298 293 288 291 290 298 306 311 311 309 308 309 309 311 313 328 329 330 331 333 334 333 334 335 339 342 343 343 343 344 345 346 347 348 349 350 351 352 353 356 357 358 358 358 358 358 358 358 356 354 353 353 354 354 353 352 353 354 353 354 356 357 356 354 353 354 356 354 354 354 356 357 358 358 359 359 359 361 361 360 359 359 361 359 359 358 357 358
Wind_Speed
7 6 6 6 4 4 2 1 2 1 2 3 2 1 2 2 0 4 3 4 3 1 2 7 9 8 3 4 8 5 11 4 0 4 5 4 9 11 8 11 11 10 10 8 8 7 7 9 13 15 14 14 14 16 16 15 15 14 14 15 16 15 15 15 15 14 14 14 14 14 14 13 12 12 12 12 12 13 13 13 14 14 14 13 14 13 13 13 14 14 14 14 14 14 15 14 15
6 7 7 6 5 3 2 0 1 1 2 3 5 3 1 2 1 3 4 4 2 4 5 5 7 4 10 7 8 8 11 8 6 8 6 10 12 8 10 13 13 12 10 9 8 7 7 8 12 14 13 14 15 16 16 15 15 14 15 15 15 15 15 14 14 14 14 15 14 14 14 13 12 12 12 12 12 13 13 13 14 14 13 12 12 13 12 12 12 14 13 13 14 14 14 14 14
7 7 5 4 3 2 1 1 2 0 1 2 2 3 2 2 3 3 4 6 7 2 7 6 10 10 8 5 9 6 4 6 17 12 10 12 13 8 13 14 12 12 13 9 8 8 7 8 12 14 15 16 16 16 15 15 15 15 16 15 15 14 14 14 14 14 16 13 15 15 14 13 12 12 12 12 12 13 13 13 14 14 12 12 12 12 12 12 13 12 12 13 13 13 14 14 14
6 3 3 4 0 1 1 0 1 1 2 2 2 2 3 4 3 5 4 3 3 3 10 13 8 3 11 13 11 17 9 6 8 16 10 10 8 13 14 14 13 12 10 9 9 8 7 11 13 14 17 17 17 17 17 16 16 16 15 15 15 14 14 15 15 14 15 15 15 14 14 13 12 12 12 12 13 13 12 13 13 13 12 12 12 12 11 12 11 12 13 13 13 13 14 14 13
4 4 5 3 1 1 1 2 1 1 2 1 2 2 2 6 4 7 2 4 4 3 7 9 7 2 15 15 7 5 8 11 10 7 10 9 13 14 15 14 13 12 11 10 10 9 9 15 14 15 16 17 16 16 16 16 15 15 15 15 15 14 14 15 16 15 15 15 14 14 13 12 12 12 12 13 13 13 12 12 13 13 12 11 12 12 11 10 11 12 12 12 12 13 13 13 12
5 4 1 4 1 1 1 2 2 4 5 2 3 3 6 6 4 4 6 4 2 11 7 11 9 9 7 8 6 9 13 9 9 9 12 14 19 18 16 14 13 12 11 10 10 8 9 15 16 16 16 17 16 16 16 16 16 15 15 15 15 14 13 15 15 15 15 14 14 13 13 12 12 12 12 12 12 12 11 12 13 12 11 10 12 11 11 11 11 11 11 11 11 12 12 12 12
2 1 1 4 1 1 3 3 4 4 6 6 3 2 10 3 4 5 1 4 7 15 6 14 17 16 12 9 13 8 7 14 10 12 11 18 19 18 18 14 13 13 12 10 9 9 12 16 17 17 17 17 17 17 16 16 16 15 15 15 15 14 14 15 15 14 14 14 13 13 13 12 12 12 12 12 12 12 12 12 13 13 12 11 10 11 11 11 11 11 11 11 11 11 11 12 12
5 1 1 1 2 1 3 4 6 2 2 1 2 6 10 3 3 3 6 7 6 3 13 14 9 13 15 8 10 13 16 8 15 17 18 18 19 19 17 14 14 14 12 11 9 8 15 17 17 18 17 17 17 17 17 17 16 16 16 15 16 15 15 15 15 14 14 13 13 13 13 12 12 12 12 11 11 12 12 11 12 13 12 12 10 10 10 11 12 11 11 10 10 9 11 12 12
2 4 1 1 2 1 2 5 4 3 5 1 1 11 6 1 7 3 1 5 10 5 16 18 14 16 9 15 10 11 12 19 17 20 20 20 19 18 13 14 14 13 14 11 10 10 11 17 17 18 17 17 17 17 17 17 16 16 16 16 15 15 15 15 15 14 14 13 13 13 13 12 12 12 11 11 11 12 11 11 12 12 12 11 11 10 11 11 11 11 11 10 9 9 10 11 11
2 2 1 1 2 3 3 3 3 1 3 4 5 8 3 2 4 2 3 4 5 11 12 13 11 17 14 13 13 11 12 20 21 19 19 19 20 18 17 17 17 17 14 11 11 10 9 17 18 18 18 18 18 17 17 17 17 16 16 15 15 15 15 14 14 14 13 13 13 13 13 12 12 12 11 11 11 11 11 11 11 12 12 11 9 9 10 11 11 11 11 10 9 9 10 10 10
2 1 2 1 1 3 3 6 4 1 1 2 4 7 5 4 5 3 3 3 3 12 18 18 15 18 13 9 8 11 19 20 20 20 19 17 18 18 16 16 17 16 15 15 12 10 11 11 19 18 18 18 17 17 17 17 17 17 16 15 15 15 15 14 14 13 13 13 13 13 13 13 12 12 12 11 12 11 11 11 12 12 12 10 9 9 10 10 10 10 10 9 9 8 9 9 10
1 1 1 1 1 0 3 5 6 4 3 1 4 5 3 4 3 4 4 6 6 14 15 10 8 16 13 12 11 15 18 17 17 17 17 18 16 17 16 14 16 15 16 15 13 11 10 10 10 16 18 18 17 17 17 17 17 17 16 16 15 15 15 15 14 14 13 13 13 13 13 12 12 12 12 12 12 12 11 12 11 12 11 10 9 9 8 9 10 10 10 10 9 9 8 9 10
2 3 2 1 1 1 4 4 3 2 5 2 3 2 6 5 4 7 4 9 11 12 11 14 18 13 13 10 10 17 18 18 17 16 17 15 15 15 16 15 16 16 15 14 14 12 11 8 9 9 13 19 17 17 17 17 16 16 16 16 15 15 15 15 14 14 14 13 14 14 13 12 12 12 12 12 12 12 12 12 12 12 10 9 9 8 8 8 9 9 9 9 9 8 8 9 11
3 4 2 2 1 2 2 3 1 2 1 2 3 2 4 5 2 4 4 7 7 8 15 18 13 14 15 12 11 13 15 18 18 17 15 17 15 16 18 15 17 16 15 14 13 12 10 10 9 9 10 9 9 13 17 17 16 16 16 15 15 14 14 14 14 14 13 14 14 13 13 13 12 12 12 12 13 13 12 13 11 10 10 9 9 8 7 8 8 8 8 8 8 8 7 7 10
4 3 2 1 1 1 2 0 2 2 3 2 2 1 2 2 1 4 5 6 4 10 15 14 15 13 12 18 12 13 17 21 20 18 18 17 17 17 18 15 16 14 13 13 13 12 11 10 10 8 7 7 8 6 6 12 17 16 16 15 15 15 14 14 14 14 14 14 14 14 13 11 12 12 12 12 11 13 12 11 12 10 10 10 10 9 8 8 8 8 8 7 7 7 6 7 10
5 3 1 1 1 1 0 3 2 1 3 2 3 3 3 5 4 3 4 9 8 9 8 11 12 3 16 7 15 20 21 21 18 19 18 18 16 15 16 16 13 13 12 12 12 10 11 11 9 8 8 7 6 6 6 7 13 16 15 15 15 15 14 14 14 14 14 14 14 14 11 9 9 8 12 9 11 12 12 9 11 11 11 11 10 9 8 8 7 7 7 7 6 6 6 6 9
6 2 1 0 3 1 1 1 7 2 2 1 5 1 1 3 3 2 6 9 8 11 10 13 7 16 16 13 16 22 21 19 18 21 18 13 11 12 11 10 10 11 9 11 10 10 11 11 10 8 8 8 8 7 6 6 10 15 13 15 15 15 14 14 14 14 13 13 12 11 9 4 3 3 5 4 9 6 10 12 11 11 11 10 10 9 8 7 7 6 5 4 4 3 5 5 5
5 2 3 3 4 1 3 3 3 5 3 1 7 2 4 1 1 4 5 12 7 10 10 10 14 12 14 15 15 20 18 18 19 20 17 13 10 11 11 10 10 10 10 9 9 11 10 9 10 10 8 9 8 6 5 5 7 10 6 7 7 9 11 11 8 6 8 6 11 7 4 3 3 2 3 6 3 6 7 11 10 10 10 10 10 9 8 8 7 6 4 4 3 5 5 4 3
6 4 4 6 4 4 5 2 3 2 8 3 8 8 5 6 5 7 9 9 13 10 10 14 16 18 18 16 18 18 18 16 18 18 19 17 13 14 12 10 10 11 10 9 9 11 9 9 9 10 9 9 9 7 6 5 7 5 5 6 6 8 8 6 4 6 4 6 5 4 3 4 3 3 3 5 4 8 7 10 10 9 9 9 8 9 8 7 6 5 3 3 4 4 2 1 2
7 5 4 6 4 2 4 5 3 4 11 12 9 9 5 5 8 3 2 9 9 12 11 15 18 22 22 19 18 19 16 17 15 19 18 17 15 14 13 12 11 10 11 10 10 8 9 9 10 10 10 10 8 7 6 6 6 5 5 5 5 5 5 4 4 4 5 5 4 4 3 4 3 3 8 11 8 4 6 8 9 9 9 8 8 5 6 6 6 4 3 4 4 3 0 0 1
5 6 6 3 7 5 5 5 4 2 5 10 7 4 4 6 3 3 3 6 3 6 10 15 23 24 22 22 20 18 18 17 15 17 18 17 15 13 11 11 11 10 10 10 8 9 9 9 9 10 10 8 8 7 7 6 6 6 5 5 5 5 5 5 5 4 5 4 4 3 3 3 3 2 3 4 4 4 3 2 3 3 2 3 5 3 3 2 2 2 2 2 2 3 3 0 1
6 10 13 8 7 4 7 8 5 4 7 6 7 6 2 2 5 2 3 4 5 3 10 17 21 22 24 23 22 18 19 16 16 17 18 17 16 15 12 11 10 11 11 10 10 10 10 9 9 9 9 8 7 8 7 7 7 6 5 5 6 5 5 6 5 5 3 2 1 2 4 4 4 2 3 4 3 4 4 4 3 1 1 1 1 3 1 1 0 2 2 2 1 0 1 2 2
7 7 7 9 7 4 8 8 10 10 7 8 5 3 1 2 4 2 2 6 4 2 13 20 20 20 20 20 21 19 20 17 17 16 18 18 16 14 13 11 11 11 10 10 10 8 9 9 9 10 9 8 8 8 7 7 6 6 6 6 6 5 6 6 5 5 4 4 2 3 5 3 4 3 3 3 4 4 4 3 2 1 0 1 1 1 3 1 1 3 2 2 2 1 2 2 1
8 4 4 11 11 7 10 11 12 10 10 8 12 11 5 8 8 1 3 9 10 7 14 19 18 18 16 18 18 19 20 18 17 13 16 17 18 16 14 13 10 10 10 11 11 10 9 11 10 9 8 9 7 8 7 7 6 7 7 7 6 7 6 6 5 6 5 3 2 3 5 4 4 4 2 3 4 4 3 2 2 1 0 0 1 2 3 1 3 1 1 1 1 1 2 1 1
8 7 8 8 10 9 12 11 10 11 10 7 12 12 10 8 12 12 10 14 10 5 15 19 19 18 17 17 16 16 17 17 16 13 12 13 17 17 14 10 11 10 11 12 11 12 11 11 10 9 8 9 8 8 8 7 6 6 7 7 7 7 6 6 6 6 5 3 4 5 5 5 4 2 3 4 4 4 3 2 2 1 1 1 2 2 1 0 2 2 2 1 1 1 2 3 2
5 8 8 8 11 11 11 12 13 13 7 10 8 5 3 7 12 12 16 12 8 12 14 20 18 18 18 17 15 15 15 18 16 15 13 12 16 18 16 12 12 11 12 11 12 11 11 11 11 11 10 9 8 9 7 7 6 6 7 7 7 7 6 7 7 4 5 6 4 3 5 6 6 5 4 4 5 5 3 2 2 2 3 2 2 3 3 3 2 3 1 0 1 0 1 2 1
4 8 10 11 6 11 13 11 13 11 6 7 8 8 5 6 4 4 13 17 10 16 16 19 19 18 17 16 14 13 16 17 17 14 12 11 15 15 15 14 14 12 12 11 11 11 11 12 10 10 9 8 7 9 7 7 6 7 7 6 6 7 7 7 8 6 5 3 5 4 3 5 6 5 4 4 3 4 3 2 3 3 3 3 3 3 3 3 3 1 1 1 1 1 1 1 1
10 10 12 9 5 11 14 13 15 10 5 11 10 8 4 3 4 3 8 13 12 14 18 18 18 17 17 16 14 11 14 15 13 13 16 13 12 13 14 13 14 14 13 12 10 10 13 12 11 11 10 9 7 10 8 7 6 7 7 7 7 6 7 8 9 7 6 5 5 5 4 5 5 6 5 4 4 4 4 4 4 3 2 2 2 3 4 3 2 2 2 1 1 1 0 1 1
9 10 9 7 9 3 15 12 13 11 5 10 10 10 1 6 5 7 11 12 14 14 17 17 18 15 15 17 15 11 13 15 12 11 15 10 12 12 14 14 13 14 10 12 11 13 15 13 12 11 10 8 7 10 9 8 7 6 7 6 6 6 7 9 9 8 7 6 5 6 5 6 5 6 5 4 4 4 4 4 3 2 2 2 2 2 4 2 2 2 1 0 1 1 1 1 1
7 6 5 8 6 6 5 9 17 13 8 14 11 5 5 8 10 11 12 10 10 12 14 15 15 15 14 14 13 15 12 15 12 12 14 8 14 13 14 15 14 13 11 10 12 13 12 10 9 9 8 10 6 9 8 8 7 7 6 5 5 6 6 9 9 8 7 7 6 6 6 6 6 5 5 4 4 4 3 3 3 2 2 2 3 4 4 3 3 2 1 0 2 1 1 2 2
7 4 2 3 1 4 5 6 20 12 14 13 8 6 5 8 13 13 14 14 14 10 10 12 15 15 14 13 13 14 13 14 13 12 13 9 13 11 14 15 14 13 10 13 13 13 13 11 10 9 8 9 6 9 9 7 6 7 6 6 6 5 7 8 9 7 7 7 7 6 6 5 5 6 5 5 5 4 4 3 4 3 2 2 3 2 2 3 3 3 2 1 1 1 1 2 3
5 2 5 2 6 2 8 11 15 13 11 16 10 3 6 9 12 13 14 14 15 12 9 9 11 13 14 13 14 13 13 15 16 16 15 12 15 9 14 15 14 14 13 14 12 13 11 13 11 10 9 9 5 10 7 6 6 6 5 7 6 4 6 7 8 8 7 8 8 6 5 4 5 5 5 4 5 4 4 3 4 4 3 3 3 3 2 2 1 2 3 3 2 1 1 3 2
6 6 2 6 6 6 7 12 11 21 20 19 15 6 5 5 12 12 13 15 11 14 12 13 12 15 15 13 13 12 12 13 15 17 16 14 14 11 12 15 14 14 13 15 12 13 11 15 11 13 12 9 8 10 8 6 8 6 7 7 6 4 7 6 6 7 8 7 7 7 7 6 5 5 4 4 3 4 4 4 4 3 4 4 4 3 4 3 2 0 0 1 2 1 1 2 3
6 3 4 5 6 7 9 8 10 21 19 17 16 10 10 7 11 10 15 15 13 11 9 13 11 11 12 12 13 12 11 13 14 16 16 16 13 12 12 14 15 15 12 15 12 13 13 13 12 13 11 8 9 9 8 8 7 6 7 6 5 5 8 6 6 6 7 7 7 7 8 7 6 5 5 4 3 3 3 3 3 3 4 4 3 3 3 4 2 2 0 0 1 3 2 2 4
4 4 6 7 9 10 7 6 6 19 23 19 15 9 15 13 13 12 14 14 14 11 13 13 12 12 10 13 13 13 12 12 13 14 16 15 16 13 12 15 14 15 12 15 12 12 12 11 11 13 10 8 9 9 8 7 7 6 7 6 5 5 7 7 5 6 7 7 7 8 7 7 6 5 5 4 4 4 3 2 2 2 3 3 3 4 3 2 3 2 2 2 4 4 5 5 8
9 10 6 8 8 8 10 12 10 11 18 18 17 11 12 14 13 12 14 11 11 7 11 11 10 11 10 12 12 12 13 12 10 12 14 13 13 14 12 13 14 13 13 14 11 11 12 11 12 11 10 8 8 8 7 6 6 7 7 6 4 4 4 6 7 7 7 7 7 8 7 6 6 6 5 4 4 4 4 3 2 2 2 3 1 3 3 2 2 3 3 2 2 4 6 4 3
11 12 10 9 9 8 10 11 12 11 15 13 13 11 15 14 13 14 13 16 12 11 9 10 10 10 8 11 9 13 14 13 12 13 13 13 13 16 11 12 14 13 14 15 12 11 13 11 13 13 10 9 9 9 7 7 7 6 5 7 6 5 3 4 8 7 8 8 8 7 7 6 7 6 5 4 4 4 4 3 3 2 2 2 2 2 3 3 3 2 2 2 2 2 2 3 3
12 11 10 9 8 8 8 9 11 8 13 11 12 10 15 15 17 15 13 12 9 15 15 11 11 9 7 9 7 5 7 10 13 12 13 14 13 16 12 12 15 15 14 16 13 12 12 12 14 13 10 9 9 9 8 7 6 6 7 8 6 4 5 6 6 8 8 8 8 8 7 7 7 6 6 5 4 4 4 3 3 3 3 3 1 1 1 1 1 1 1 1 0 1 1 0 2
12 10 7 7 8 9 13 14 11 7 13 12 17 14 13 13 18 20 19 14 12 13 13 12 13 11 8 8 9 8 7 4 14 13 14 15 16 18 12 13 15 14 16 16 15 13 13 12 12 13 11 11 9 9 8 7 6 4 5 5 6 3 2 4 5 8 9 9 8 8 8 7 8 7 7 6 5 5 5 5 4 3 3 2 2 1 2 2 1 1 1 1 2 1 1 1 3
8 6 6 8 9 9 6 8 4 2 6 12 15 12 9 10 13 14 13 16 14 15 15 12 11 13 12 12 11 11 9 9 8 15 15 16 16 15 12 14 14 14 15 14 15 14 13 10 13 13 12 11 11 9 8 7 8 5 6 7 5 5 4 3 3 8 8 9 8 8 7 8 8 7 8 7 6 5 6 6 5 5 4 3 4 3 3 2 1 1 0 1 0 1 1 1 1
6 9 8 7 9 11 9 7 7 4 6 21 15 8 5 9 11 11 12 13 13 14 14 14 12 11 12 9 8 11 13 11 10 11 15 16 16 16 14 15 14 15 15 16 15 14 12 12 15 14 12 12 11 11 9 8 8 5 5 6 5 5 1 3 3 6 8 7 8 6 7 8 8 7 8 8 6 7 6 5 6 5 5 4 4 4 4 4 3 2 2 1 1 1 2 2 1
6 8 9 10 11 15 14 11 9 4 3 13 18 5 7 10 16 17 13 12 12 13 15 16 15 13 12 13 12 11 11 11 13 12 16 17 17 15 13 16 15 15 15 16 15 15 14 12 14 13 12 11 12 13 10 9 10 8 8 7 7 7 5 6 6 7 8 8 9 7 7 8 8 7 7 8 7 7 7 6 6 5 5 5 5 4 3 3 4 3 4 3 2 3 2 1 1
6 5 9 11 11 15 14 14 8 4 3 6 14 13 5 9 12 14 15 17 17 11 12 15 15 14 14 14 14 14 14 13 11 11 16 15 17 17 16 16 16 16 15 15 14 14 14 13 14 14 13 11 11 13 12 8 11 8 9 9 8 9 10 6 6 6 9 8 7 8 7 7 7 7 7 7 6 8 7 7 6 6 6 6 5 4 4 4 4 4 3 4 5 2 1 1 2
6 5 9 7 13 12 12 11 8 7 6 5 8 5 7 7 10 15 18 19 17 15 14 16 16 16 17 15 16 15 15 14 14 12 14 16 16 18 18 17 16 15 15 16 14 14 15 15 14 14 12 13 11 12 13 10 11 10 9 7 7 8 10 8 7 7 8 8 8 8 7 7 7 6 6 7 6 6 6 8 7 7 6 6 6 5 5 5 4 3 2 3 1 1 2 1 1
3 6 12 12 7 12 13 8 4 3 4 8 6 5 1 6 10 13 15 14 14 15 15 15 17 19 19 17 17 17 16 15 15 13 13 16 17 18 17 16 17 15 16 17 15 15 13 15 13 13 13 14 13 15 14 11 10 11 10 9 6 6 7 8 6 6 8 8 8 8 7 7 7 7 6 8 6 6 6 6 6 6 7 6 6 5 6 6 5 5 3 2 3 0 1 1 1
7 13 11 9 8 5 4 3 3 5 5 10 9 2 3 4 10 9 12 15 17 18 20 19 20 20 19 18 16 16 14 13 14 14 13 13 16 16 17 17 17 15 16 15 15 14 13 14 15 15 13 13 13 15 15 13 11 10 10 9 9 6 6 7 6 7 6 7 6 9 8 7 7 7 6 7 7 7 7 6 6 6 6 6 6 6 6 5 5 5 5 5 3 1 0 0 1
3 7 9 9 7 5 4 6 2 3 3 7 8 7 3 4 8 15 14 14 20 18 15 16 18 19 19 18 18 17 15 14 14 15 14 12 14 17 16 18 18 16 13 16 16 16 15 16 16 16 16 12 14 16 15 15 12 11 12 11 11 9 8 8 8 7 5 5 7 7 8 7 7 7 6 7 7 7 7 7 6 7 6 5 5 5 6 7 7 6 6 5 4 3 2 2 1
3 3 4 3 6 7 3 1 4 1 2 4 5 6 6 4 2 14 20 23 23 21 21 19 21 21 19 17 17 17 17 14 15 15 16 14 11 12 16 18 18 17 14 17 16 16 16 16 17 17 15 14 13 15 15 15 13 12 12 12 13 10 10 9 10 10 8 7 7 7 8 7 7 6 6 6 7 6 7 7 6 6 6 5 5 5 3 8 7 7 6 6 4 4 3 3 2
7 4 5 6 1 1 3 2 3 2 2 3 6 6 6 8 6 5 14 16 19 19 20 22 23 22 21 20 20 18 16 15 14 13 15 15 15 13 16 18 17 17 15 18 18 18 17 16 18 18 17 16 14 15 16 16 14 13 13 13 12 11 11 11 11 11 9 7 6 7 7 9 7 6 6 6 6 7 6 7 7 6 7 6 5 4 4 3 6 6 7 6 6 5 4 3 4
7 7 4 3 3 3 3 1 1 3 2 6 10 7 8 1 7 5 11 15 17 19 18 22 24 25 23 21 20 18 16 15 15 13 14 16 15 14 15 16 17 17 16 18 18 17 16 16 18 20 19 17 15 15 16 15 15 14 14 13 12 11 11 11 10 11 10 8 7 7 8 9 9 9 8 8 7 8 7 7 7 6 6 6 4 5 4 3 4 6 7 6 6 6 5 5 5
3 3 1 2 1 2 2 2 4 5 6 5 11 5 4 3 6 6 8 5 17 22 19 19 22 22 23 22 21 21 18 17 16 16 15 16 18 16 15 16 17 17 18 18 17 17 16 16 18 20 18 17 16 16 15 16 14 14 13 13 12 11 11 10 10 10 10 10 8 8 7 7 9 9 9 8 8 8 8 8 7 6 5 6 5 5 5 3 4 4 4 6 6 6 6 6 5
2 3 3 6 7 1 5 2 3 4 5 7 5 6 5 6 4 8 11 9 4 16 23 18 20 17 18 18 20 20 20 19 18 17 17 16 17 16 14 15 16 16 18 16 17 17 17 18 19 20 20 19 17 16 16 17 16 14 13 13 13 12 10 10 8 7 9 10 10 10 9 8 8 8 7 7 9 9 8 9 8 7 6 6 6 5 4 4 4 4 2 2 4 4 5 5 4
2 6 8 9 5 5 2 5 10 8 5 4 2 4 4 2 5 7 13 13 11 6 17 25 22 18 19 19 21 22 21 19 19 18 17 17 15 15 15 15 16 17 17 17 18 18 18 17 18 19 19 17 17 17 17 16 16 15 15 14 13 12 12 12 11 12 11 11 10 10 9 9 8 8 7 7 7 8 8 10 9 8 7 6 6 6 5 5 5 4 5 3 3 3 5 5 5
4 3 3 6 3 3 2 3 2 4 3 3 6 4 4 7 5 6 9 8 13 10 6 23 22 22 21 20 20 22 20 20 20 19 19 19 17 18 15 15 17 18 19 19 18 17 16 17 18 19 18 19 18 17 16 15 15 15 14 15 14 14 14 13 12 12 11 10 10 9 9 8 9 9 9 8 7 7 8 10 9 9 8 7 7 7 6 6 6 6 5 5 4 4 3 5 5
6 10 5 3 2 7 5 2 3 2 3 3 6 7 4 12 5 11 13 11 10 11 9 21 22 22 21 20 23 23 22 19 17 18 17 17 17 17 17 17 17 17 18 18 15 16 15 15 18 20 21 20 19 16 15 14 15 13 13 15 16 15 13 13 12 12 11 11 12 11 11 11 10 9 9 9 9 8 8 9 9 9 8 8 8 8 8 7 7 7 6 6 5 5 4 4 5
9 5 8 3 2 5 6 3 2 1 3 1 3 6 5 4 7 15 16 16 11 12 11 19 26 25 21 21 22 19 19 17 16 17 16 17 17 18 19 18 17 17 16 16 16 15 18 17 18 19 18 18 18 18 16 16 16 14 13 13 14 14 14 13 13 13 12 12 12 12 12 12 12 10 11 11 10 10 9 10 9 10 10 9 8 8 8 8 7 7 7 7 7 6 5 5 4
11 9 7 4 4 2 3 2 4 4 2 3 3 3 4 8 3 8 14 18 17 15 12 12 25 25 23 22 18 18 18 16 16 15 15 16 17 17 17 17 17 16 15 15 15 16 17 16 17 19 20 20 20 19 17 16 15 16 15 16 16 15 15 14 14 14 14 13 12 12 12 12 11 10 11 12 11 12 11 11 11 10 10 9 9 9 8 8 7 7 7 6 6 7 7 5 4
12 8 7 6 8 6 5 6 2 5 5 1 2 5 7 8 3 3 3 11 13 9 5 6 24 20 21 17 17 19 16 15 16 15 16 16 16 17 16 15 14 15 16 17 16 15 16 18 18 18 19 19 20 19 17 16 15 15 16 16 16 15 15 14 15 14 14 14 13 12 12 11 12 12 11 12 13 12 12 12 11 11 10 10 10 9 9 9 8 8 7 6 6 7 7 7 5
Wind_Direction
175 182 196 201 197 233 67 172 260 180 236 240 281 219 256 100 327 100 144 198 128 346 107 107 116 144 166 190 157 79 42 153 104 147 167 143 134 147 154 135 138 139 136 137 140 146 136 137 136 133 128 127 128 129 128 124 122 121 119 119 121 119 121 122 121 122 121 117 114 115 117 116 112 106 104 106 101 98 95 95 92 87 87 88 90 89 90 85 82 82 80 81 82 80 80 80 80
182 193 195 189 204 186 206 297 222 246 194 280 241 175 222 157 157 139 172 184 187 154 162 113 106 130 256 149 124 87 29 19 80 103 77 118 125 138 153 139 146 142 137 137 141 139 135 136 135 132 132 131 133 133 131 127 125 125 125 127 123 122 124 123 122 121 119 117 121 120 117 114 111 106 105 103 102 99 96 93 92 92 91 92 93 94 91 89 87 83 82 86 84 84 84 85 83
190 187 203 197 234 163 10 197 274 228 272 266 294 203 134 96 136 137 159 207 216 164 142 133 147 163 187 124 59 69 74 59 94 83 100 130 130 159 147 146 144 138 137 141 141 136 134 139 138 138 137 136 135 133 131 129 130 131 128 125 124 124 122 122 122 118 119 124 123 119 118 115 111 109 106 102 100 98 96 93 95 99 99 95 97 99 97 93 88 89 90 87 86 88 88 86 87
189 200 218 164 204 283 294 139 233 285 234 248 292 271 176 131 186 126 206 240 243 150 157 162 171 326 95 82 100 91 92 69 77 123 126 150 148 148 145 145 139 136 140 143 138 136 138 142 141 138 136 135 133 132 132 131 132 129 127 126 125 125 124 125 117 123 124 125 118 118 117 115 112 108 104 100 92 88 90 94 97 98 100 105 102 99 99 99 102 98 91 88 90 90 91 91 92
289 258 215 116 180 294 211 223 285 235 244 284 269 304 152 86 320 159 115 91 345 303 171 124 102 265 113 121 136 112 121 100 88 94 123 127 140 142 146 143 139 143 141 136 132 134 140 142 140 138 135 134 133 132 131 130 129 129 128 127 127 125 124 124 125 127 122 119 119 117 116 114 112 110 106 100 94 92 92 99 101 100 104 103 101 102 101 99 99 98 94 91 88 89 90 93 93
243 267 132 95 109 101 244 265 202 222 226 172 212 180 102 127 194 89 126 118 199 246 156 125 128 136 94 56 80 108 133 125 140 107 131 138 144 148 145 142 141 139 133 126 128 133 141 144 142 139 136 134 133 132 130 130 130 129 127 126 118 118 121 123 123 121 120 118 118 117 115 115 114 111 105 98 97 98 100 102 103 102 102 101 103 104 105 102 96 96 97 94 94 91 90 93 95
198 177 28 21 121 110 268 273 267 248 262 217 223 71 96 154 97 94 49 89 255 230 141 104 108 105 89 99 96 112 105 121 130 135 138 143 146 146 145 141 140 132 126 127 130 137 144 145 142 139 137 136 135 134 134 132 131 129 127 125 123 126 130 123 119 119 118 118 118 117 117 118 116 113 108 105 104 103 106 110 109 106 100 100 100 103 101 99 101 100 99 99 99 96 92 91 91
250 92 309 104 306 164 246 251 264 221 272 25 14 60 83 122 77 127 156 193 193 199 130 119 102 96 104 118 100 107 126 123 119 130 136 142 144 145 141 141 132 125 125 130 134 137 143 142 142 139 138 137 135 135 133 133 130 130 129 128 129 130 123 121 121 119 118 118 118 117 118 116 114 113 110 110 113 110 107 108 110 106 107 105 102 102 102 101 98 98 98 99 97 95 92 90 89
189 77 261 109 283 240 274 266 282 204 261 304 27 76 109 93 123 210 73 248 123 130 99 111 126 99 112 107 104 123 106 116 126 133 139 141 143 139 140 136 128 127 130 132 133 137 140 145 140 139 138 137 136 134 133 133 131 130 129 128 125 125 124 121 121 119 120 119 119 117 117 115 116 114 114 114 113 112 110 110 110 110 107 102 104 104 102 100 101 101 99 100 99 94 89 90 90
133 113 126 330 307 278 268 284 295 31 326 3 13 99 151 142 116 117 196 53 142 122 104 91 100 99 116 107 113 111 123 126 133 135 142 145 142 141 138 133 130 131 129 130 136 137 142 142 140 139 139 138 137 135 134 133 131 128 126 125 125 124 123 123 121 121 121 121 118 118 116 116 116 118 116 114 116 115 112 113 112 111 107 106 107 108 103 103 103 104 104 101 101 96 93 91 92
116 21 108 357 278 303 333 316 314 341 4 354 73 104 110 112 147 173 145 154 115 101 99 103 96 109 107 103 92 110 122 134 142 144 150 144 134 137 136 131 130 130 133 136 137 138 139 140 140 140 138 137 136 135 133 132 130 127 127 126 127 126 126 125 124 123 124 122 121 120 116 115 117 120 122 123 121 120 119 114 110 106 108 113 114 105 103 103 103 103 103 103 102 101 96 95 93
166 168 154 277 261 229 299 316 317 325 301 66 71 81 156 110 261 173 211 166 141 122 125 130 117 120 105 113 117 127 133 138 139 142 140 133 136 137 125 123 132 134 136 136 135 134 137 139 138 141 138 137 137 135 131 131 129 130 129 129 130 128 127 125 126 126 126 125 122 116 115 116 118 120 120 123 123 122 122 116 108 113 116 117 112 110 108 104 103 101 103 106 106 103 99 95 91
193 174 145 233 238 271 299 304 300 326 332 41 73 65 101 101 237 190 192 159 158 130 113 105 129 121 118 119 130 136 141 145 147 150 139 133 139 128 122 129 134 136 134 133 135 134 134 131 135 136 139 139 137 135 132 131 131 131 130 130 129 127 126 127 127 126 125 124 120 119 120 122 122 120 122 120 121 121 119 116 122 119 123 124 121 118 110 107 104 103 105 105 106 102 102 96 96
194 164 116 282 87 259 289 296 294 16 275 349 60 118 123 160 253 263 214 148 128 118 118 131 126 123 111 122 141 142 143 151 148 143 137 139 139 128 130 135 135 133 136 136 133 135 135 135 135 134 137 133 133 132 133 133 134 133 133 131 130 128 128 127 126 125 124 123 121 121 121 121 122 124 122 122 120 118 119 118 118 129 131 131 123 116 112 107 105 106 104 103 102 98 90 93 93
174 136 107 188 243 272 179 321 19 1 303 20 62 334 89 193 287 337 -0 168 132 141 139 125 126 132 156 150 154 152 152 152 149 145 138 137 135 134 134 130 133 135 135 135 137 137 138 138 136 134 133 127 127 126 131 137 136 135 133 132 131 130 129 128 126 126 124 122 120 113 115 121 121 122 120 117 117 120 118 121 130 133 134 126 123 120 116 112 107 106 103 102 101 98 95 91 93
144 130 91 330 296 68 127 152 127 254 266 224 113 51 21 332 22 59 264 279 155 141 112 121 155 134 150 139 144 146 148 147 146 139 133 137 137 131 124 132 135 132 135 139 140 140 139 135 140 137 133 134 132 132 135 137 138 136 133 133 133 130 130 130 129 127 124 123 118 115 116 113 113 115 119 119 121 118 120 124 128 125 125 122 121 118 116 112 111 104 99 95 90 91 90 88 97
136 113 88 278 300 129 265 27 125 257 301 304 85 138 140 335 6 350 300 288 182 138 119 149 127 133 151 148 147 143 144 146 144 138 135 135 136 129 130 133 130 135 141 143 143 139 138 142 143 138 142 142 138 136 137 137 141 136 134 134 134 132 133 131 129 127 125 119 109 110 104 90 84 107 105 117 113 119 125 129 127 126 122 122 119 116 113 110 103 97 87 79 80 81 91 80 80
123 131 133 238 211 220 185 172 123 161 108 160 78 251 79 84 284 242 204 244 194 130 124 109 127 141 133 144 149 140 140 147 144 141 136 134 140 133 134 136 140 144 146 144 138 139 144 147 145 144 147 142 139 138 138 142 137 133 131 133 132 135 135 132 125 124 118 101 108 107 115 120 117 100 106 111 112 123 127 125 124 123 121 120 121 118 114 111 111 103 94 85 77 76 40 12 38
200 173 151 246 168 229 144 150 129 105 107 135 172 192 166 176 150 196 184 196 149 150 140 163 149 129 133 149 143 142 147 147 148 139 138 141 143 139 138 141 145 145 145 138 140 145 148 146 148 149 144 142 143 143 143 145 134 135 135 132 135 136 135 125 124 118 95 104 109 121 130 134 127 120 114 128 126 135 129 128 125 121 119 116 117 117 117 117 114 114 113 96 62 54 47 341 13
214 249 224 229 213 139 150 146 159 128 124 168 171 169 193 134 204 5 258 157 153 149 158 151 138 137 149 149 147 145 149 150 148 140 140 142 143 140 141 146 147 148 139 143 142 144 148 151 152 147 146 149 146 144 142 143 138 140 139 132 131 128 128 132 113 111 111 113 125 144 141 125 124 132 138 136 132 122 127 131 131 125 121 117 109 99 114 118 108 93 71 46 27 1 170 251 66
161 204 240 217 176 143 178 155 156 137 144 149 157 149 182 187 176 312 104 128 281 164 156 145 144 147 150 149 149 156 151 158 148 143 140 144 144 140 146 148 152 143 140 137 141 147 155 154 150 147 150 150 144 141 143 147 140 137 140 134 135 139 132 119 107 111 118 131 138 165 152 134 125 129 97 87 96 124 119 73 54 50 75 73 96 75 67 100 103 111 76 61 23 1 341 344 3
206 206 223 175 167 157 159 158 153 172 121 121 126 121 149 131 115 183 144 132 196 163 147 143 144 149 150 155 155 160 153 159 152 150 146 150 146 144 145 146 145 143 137 141 148 151 154 155 150 147 147 149 147 144 149 148 142 146 143 147 144 144 132 124 120 126 103 57 117 112 75 67 106 92 81 110 96 87 74 76 66 33 61 114 136 132 125 121 190 129 116 126 93 334 280 31 356
239 229 226 154 162 170 166 157 174 169 157 148 137 131 119 124 114 205 119 211 247 344 156 141 148 152 154 153 156 155 155 157 158 157 148 149 145 147 147 150 151 150 144 144 146 149 150 151 150 150 150 149 148 146 146 147 153 151 149 152 149 148 136 135 141 106 116 187 123 95 100 99 100 92 109 104 100 104 99 98 90 21 149 158 195 137 138 145 118 102 133 128 83 2 343 36 -0
237 259 126 177 175 188 169 162 172 173 150 155 152 176 161 180 140 336 311 248 262 265 145 141 140 147 150 151 166 157 156 154 161 161 151 148 149 151 153 154 152 143 143 144 146 148 157 153 156 156 153 149 154 148 149 151 159 156 155 155 153 157 147 152 134 142 138 118 148 135 124 130 119 131 138 113 101 100 115 130 135 79 348 69 98 68 96 77 98 91 78 100 74 41 1 311 357
210 222 242 188 194 179 164 163 169 171 174 158 132 155 178 155 136 155 209 231 227 240 142 139 145 148 151 158 168 155 150 151 162 163 155 149 149 148 152 151 147 148 147 150 146 150 156 153 158 158 157 153 155 151 151 162 163 157 158 153 160 164 158 154 131 136 128 172 182 163 138 132 127 125 136 126 116 106 125 141 147 181 262 248 122 112 134 99 83 73 59 61 92 51 348 328 358
249 255 234 197 191 164 163 170 178 172 153 165 146 132 153 183 150 171 181 207 204 154 145 139 146 150 156 165 170 157 155 153 162 166 164 154 146 148 156 154 149 156 154 151 147 151 150 157 161 160 164 162 158 152 159 162 171 153 155 157 162 161 167 151 140 127 158 167 160 149 149 140 148 154 149 131 134 147 147 156 171 201 207 222 157 172 173 134 114 96 84 55 75 36 331 311 5
272 238 232 247 224 164 163 182 138 144 125 117 134 151 183 208 212 137 168 164 191 138 147 149 149 156 159 166 166 164 154 156 166 167 160 160 151 151 155 150 156 152 155 158 150 150 150 159 160 160 164 166 169 154 160 164 158 151 160 162 163 172 170 152 138 147 158 167 149 140 142 142 145 147 141 147 139 145 156 179 203 202 206 187 142 107 90 101 110 132 136 156 133 110 288 296 284
300 309 311 293 223 166 166 171 130 142 143 150 157 144 140 241 201 168 159 152 144 155 151 158 154 157 160 167 166 165 158 162 168 171 164 171 159 154 154 154 158 151 158 161 155 147 152 162 156 164 168 173 170 152 156 160 158 153 161 168 177 172 167 132 139 149 152 166 145 144 154 153 152 145 154 162 161 158 177 196 204 187 176 126 102 115 117 114 134 142 124 146 143 114 330 273 279
274 275 283 279 273 270 162 161 149 146 158 152 126 84 213 215 217 171 151 149 156 168 160 161 154 157 161 165 162 167 172 165 168 175 167 173 161 154 155 155 154 153 158 159 158 150 155 158 158 165 168 169 163 152 157 160 166 161 167 171 172 164 147 121 140 155 153 152 149 157 155 157 148 153 160 170 170 172 181 181 181 176 157 127 132 136 126 146 110 79 39 63 32 180 205 180 227
282 267 232 267 291 270 198 180 144 145 185 144 129 131 215 202 212 163 150 154 152 156 164 160 153 158 167 164 156 171 178 163 167 181 167 171 166 157 153 157 154 155 155 155 160 153 157 156 158 163 162 172 171 144 152 158 165 156 164 158 161 150 112 126 141 154 143 146 149 159 162 162 152 160 162 172 164 180 174 171 178 191 162 159 145 138 120 112 109 108 134 116 241 180 192 214 209
248 257 258 240 233 253 236 221 147 142 164 146 142 128 235 192 193 159 160 156 157 162 174 157 158 163 164 163 161 179 168 168 166 177 167 173 166 158 152 158 153 154 148 155 164 156 160 153 158 160 171 172 160 139 146 146 149 143 145 143 158 145 127 133 145 146 143 137 146 159 170 163 158 166 176 170 170 174 178 178 172 176 160 138 125 96 103 108 111 112 123 179 246 271 266 233 205
290 238 258 263 206 219 246 226 200 152 172 160 129 97 209 204 170 171 160 166 162 162 178 169 162 167 155 161 168 185 166 169 172 169 173 182 167 161 158 158 151 155 154 157 163 158 157 149 159 157 173 167 151 141 144 143 143 149 137 142 162 133 135 137 146 146 142 141 150 157 168 170 169 176 177 174 164 164 160 161 159 153 171 145 148 153 139 99 128 160 172 139 88 25 293 277 224
266 240 210 227 196 219 237 247 215 148 163 178 167 151 171 205 168 170 151 166 157 162 177 171 165 176 159 161 171 183 167 169 175 167 171 182 166 163 163 155 151 156 154 158 161 162 151 151 156 157 174 164 152 144 149 145 153 146 146 149 164 141 138 147 149 144 145 149 146 151 166 171 173 177 173 179 172 159 158 155 164 170 168 154 152 152 125 142 152 180 328 131 123 182 286 259 268
258 206 237 253 233 193 229 238 233 150 154 174 193 136 182 177 160 168 155 161 161 170 166 165 164 184 163 162 167 181 174 168 182 169 169 177 166 163 160 155 152 157 155 160 162 161 153 153 152 160 170 159 154 146 151 144 153 138 139 153 162 156 145 153 156 137 148 149 148 153 164 165 168 172 166 176 151 157 147 153 174 188 137 138 149 143 136 139 142 137 73 15 174 179 227 251 251
230 220 213 230 249 253 247 216 208 159 160 165 181 145 170 167 172 164 156 159 169 172 171 173 173 171 172 160 164 179 182 173 181 172 168 170 165 161 158 157 154 157 157 161 162 158 154 152 150 160 168 159 150 146 148 145 147 139 136 156 167 167 152 160 144 137 142 147 149 154 159 160 161 157 163 162 163 150 120 140 178 184 110 110 126 135 124 122 153 144 147 243 211 194 207 231 224
235 242 212 216 219 221 237 251 259 185 173 162 164 160 148 151 161 146 153 158 185 150 168 170 171 167 178 162 167 178 179 181 182 171 171 165 167 160 159 156 155 157 157 162 161 155 156 150 151 156 167 156 146 145 148 143 143 143 142 156 170 181 159 154 148 147 140 146 152 151 158 155 150 155 160 168 155 129 134 147 161 107 95 102 120 137 131 151 156 166 215 229 269 245 227 230 107
273 280 286 288 286 263 230 239 242 190 161 163 159 145 150 156 160 164 168 164 178 128 234 163 164 169 167 167 171 178 174 183 181 173 176 168 160 164 157 154 157 155 155 164 160 157 162 151 154 158 162 153 150 152 156 150 153 140 137 160 178 186 176 166 151 154 152 154 156 155 156 156 154 155 161 158 156 143 145 161 138 119 105 119 158 156 171 181 180 184 193 207 252 348 332 30 69
273 277 284 294 288 282 276 247 235 150 140 155 162 149 151 159 169 167 163 168 170 173 185 164 168 168 155 154 149 141 172 177 179 174 178 169 159 167 162 159 159 160 159 164 165 158 165 151 157 159 154 157 156 158 159 154 165 161 153 172 172 179 174 170 161 157 155 155 156 156 160 159 156 157 156 158 164 142 147 150 148 167 160 172 152 209 122 95 58 342 262 338 16 311 273 338 73
247 258 284 281 270 282 278 260 235 188 156 159 165 159 156 157 153 166 167 165 178 193 174 169 170 175 169 176 168 164 154 180 182 180 179 172 164 170 168 165 162 164 160 165 165 158 163 154 160 158 157 156 159 158 155 161 166 160 148 168 164 176 189 178 158 145 155 157 163 163 162 161 161 161 160 164 159 162 162 161 169 164 185 173 135 187 127 106 148 249 187 145 338 308 259 192 114
231 256 249 255 273 273 305 309 272 151 169 151 166 154 143 130 147 164 165 167 184 180 167 171 177 178 182 185 179 164 171 173 200 181 180 173 168 172 166 168 162 162 160 165 167 163 164 159 161 161 159 157 163 163 159 162 169 166 151 156 166 168 184 173 166 119 154 152 163 166 164 163 164 167 168 168 171 171 171 172 156 167 184 179 165 172 170 172 185 225 306 292 87 355 327 239 154
228 222 247 269 269 266 262 273 299 301 224 155 143 119 141 152 159 177 177 175 178 169 167 166 179 186 184 180 171 167 174 184 194 194 179 176 174 176 166 168 161 163 165 168 169 167 168 165 162 163 162 160 164 167 159 157 163 168 168 157 152 168 115 154 187 116 154 159 157 168 171 168 167 169 169 176 173 177 174 172 166 180 176 189 174 183 172 181 203 206 193 190 186 154 302 234 188
260 229 218 238 265 275 282 290 302 325 340 154 136 121 191 190 179 172 169 169 185 170 169 170 179 181 176 178 180 180 185 193 192 200 184 176 177 175 164 168 166 165 168 170 170 167 166 163 163 162 163 162 165 170 167 156 170 175 175 171 157 167 173 181 192 165 161 163 172 176 163 170 171 173 175 180 180 176 176 178 171 172 184 175 188 185 177 168 185 218 206 187 202 199 208 327 72
230 236 205 218 242 260 272 288 312 303 273 172 164 149 196 191 183 178 172 173 180 175 177 172 175 178 181 182 178 184 187 193 202 202 184 180 176 173 170 172 171 168 168 170 165 169 165 165 165 162 167 166 165 171 173 160 167 180 183 185 170 166 177 200 190 173 158 169 168 171 173 172 176 174 181 185 180 174 174 169 170 180 180 178 188 171 186 194 182 208 207 170 193 191 137 68 183
241 274 270 214 217 253 269 264 264 267 296 275 254 212 125 183 207 188 177 173 173 183 190 179 175 178 184 184 183 182 188 190 193 199 187 182 173 173 174 173 175 168 165 168 166 171 164 172 164 167 165 169 168 171 176 173 171 177 182 190 164 167 177 188 185 173 163 165 167 177 173 176 183 185 177 185 185 173 171 166 171 178 180 184 183 185 193 186 187 182 216 189 223 162 118 128 272
247 218 249 264 226 217 245 253 231 259 310 292 307 323 127 178 198 193 167 169 177 192 199 190 181 178 182 186 187 185 187 187 188 193 192 180 176 174 174 174 173 163 167 170 172 171 163 170 167 167 168 170 172 171 178 180 174 177 178 187 170 177 168 181 180 160 170 173 159 174 177 179 182 189 182 180 183 170 175 171 171 178 183 184 189 188 198 173 176 167 191 185 226 136 156 182 114
235 271 284 279 278 275 221 271 277 244 238 263 273 299 279 220 181 176 175 177 184 197 194 192 181 182 183 185 186 186 186 186 190 194 194 182 178 176 174 172 172 171 168 167 169 166 163 168 172 171 173 174 172 174 177 181 179 173 176 184 181 172 163 170 172 162 164 184 162 174 173 179 185 187 186 184 173 173 171 172 178 186 188 187 196 194 190 163 180 180 180 189 176 129 118 17 192
246 222 250 270 293 297 298 278 296 32 244 261 263 283 267 294 189 174 169 190 195 185 186 182 182 183 185 184 183 185 187 185 189 193 193 188 181 177 170 171 176 173 164 167 168 171 165 171 176 176 179 172 175 176 176 181 180 179 179 180 184 171 168 163 172 177 178 164 185 172 175 181 186 191 181 182 177 171 172 176 177 185 194 202 197 187 172 171 182 174 175 162 165 157 196 230 310
244 258 221 293 294 301 333 332 33 290 280 289 292 263 268 250 242 183 186 195 186 180 186 180 181 186 185 185 184 185 187 187 187 186 189 187 180 178 170 173 176 175 168 169 171 170 171 172 176 178 177 179 177 179 178 180 181 184 184 180 182 180 169 170 173 181 187 181 185 174 173 169 185 194 188 169 186 173 172 179 180 179 191 200 201 202 166 169 176 168 161 163 162 179 190 179 208
250 244 256 187 237 156 285 60 273 238 234 282 285 285 284 247 224 168 214 198 187 187 184 182 179 183 185 185 183 184 187 185 184 178 183 186 187 184 177 176 174 177 174 173 173 173 173 173 176 177 183 181 179 179 182 181 182 184 185 186 183 180 178 174 176 180 187 186 181 175 159 172 176 186 197 181 184 184 172 176 186 188 188 193 187 177 219 143 171 166 164 167 164 177 190 193 208
230 212 175 150 190 212 230 229 159 287 292 268 287 301 264 298 299 232 185 187 190 190 192 186 182 182 182 182 180 181 186 186 188 184 179 184 187 187 181 175 175 179 177 175 175 173 174 175 176 181 184 183 179 179 182 185 187 186 186 186 185 182 183 178 179 179 187 189 180 180 174 170 178 185 189 192 186 184 180 183 190 192 184 184 172 176 193 157 122 148 160 168 175 184 188 192 203
261 9 281 179 204 175 210 159 183 193 225 230 221 262 213 128 253 276 262 194 177 190 189 190 185 182 181 178 177 179 182 186 187 192 185 181 183 183 181 176 178 179 178 176 175 176 174 176 178 182 182 184 182 182 182 185 189 190 188 188 187 184 183 182 182 181 182 185 188 183 184 177 175 187 189 188 188 183 182 183 187 195 179 180 168 165 177 150 143 122 151 181 180 182 188 188 201
249 186 193 272 232 269 249 207 181 187 196 223 212 211 158 206 219 264 272 262 216 180 191 183 188 185 175 174 178 181 186 184 186 186 186 182 180 183 180 180 179 181 180 176 178 176 177 179 179 181 182 183 184 183 186 187 188 189 189 189 190 187 185 184 181 180 181 184 186 186 187 186 187 182 187 178 189 184 181 183 185 190 181 175 172 168 159 153 148 154 154 158 162 183 183 189 204
194 199 206 216 237 249 288 303 281 292 309 260 257 230 244 212 246 243 260 265 254 216 179 184 184 180 176 179 182 184 187 187 183 182 183 181 178 176 183 182 180 180 181 182 181 180 178 176 177 180 182 184 187 188 188 189 188 186 191 192 189 188 187 186 187 187 183 185 184 188 187 189 187 185 188 188 181 186 183 181 184 187 183 175 170 169 169 165 163 162 175 180 199 195 183 197 209
258 301 236 185 226 302 177 230 261 247 202 257 244 217 216 165 240 244 250 267 268 251 184 172 172 177 178 183 182 184 186 188 185 183 181 182 179 178 179 184 182 181 182 184 182 178 175 175 176 178 181 184 189 189 190 190 189 191 191 192 193 191 190 191 190 191 186 181 186 187 187 185 188 189 191 196 190 181 183 183 182 185 183 178 175 174 173 173 170 177 181 189 195 203 195 203 199
226 230 335 341 90 221 266 313 250 281 273 258 263 279 253 182 227 186 221 233 240 248 237 163 173 175 181 184 186 185 186 183 181 181 179 179 179 180 178 181 184 182 182 183 178 176 175 175 177 179 182 185 185 188 191 192 193 193 193 193 193 193 193 192 192 191 189 188 187 187 188 190 188 186 187 191 194 190 180 185 181 183 182 181 178 176 176 178 175 179 185 186 196 197 206 203 205
240 320 297 286 248 248 243 206 262 51 283 325 281 266 260 186 210 182 202 217 213 230 233 163 173 175 179 188 185 181 181 180 180 177 178 179 181 182 180 179 181 182 181 180 178 178 179 177 176 180 181 182 183 187 188 192 194 196 196 195 196 194 193 193 192 188 192 194 192 188 190 188 191 186 188 188 190 192 184 182 184 181 183 182 181 180 179 183 178 182 181 186 192 192 205 206 207
337 325 290 283 266 -0 315 305 237 197 213 217 285 302 285 265 207 191 203 198 211 215 210 166 176 174 180 180 177 181 177 179 176 178 177 180 180 182 184 181 182 183 181 179 181 183 182 179 179 179 180 182 185 188 188 192 192 197 196 196 195 193 194 194 193 193 194 196 194 190 191 191 189 190 186 188 189 190 187 183 182 183 182 183 184 183 182 179 184 184 187 184 186 188 196 209 200
319 326 317 306 331 308 244 266 206 236 221 220 253 253 264 267 300 5 218 227 214 216 196 181 169 172 178 172 178 176 176 173 178 178 178 182 181 181 182 182 183 183 182 185 185 186 184 185 183 181 180 183 185 187 190 189 192 195 198 197 197 195 194 193 194 194 196 195 196 193 192 189 191 195 188 190 190 189 188 185 183 183 183 184 187 187 183 179 183 186 191 190 191 190 194 202 199